STARLINK-35637, 66130

Orbit data source: Space-Track

STARLINK-35637, 66130 is a payload satellite owned by SpaceX/Seattle (US) in LEO that was launched on Wed, 22 Oct 2025 UTC via an FALCON 9 launch vehicle from the Air Force Western Test Range (AFWTR). Payload-class satellites include a variety of spacecraft equipped with specific instruments for various scientific and technological missions. These include communications satellites like Starlink; space stations such as the ISS; scientific satellites like the Hubble; Earth observation satellites from companies like Planet Labs, Umbra, and HawkEye 360; GPS; miniature CubeSats for education and research; and military/defense satellites.

Loading next visibility...
Identifier
66130, 2025-237S
Orbit
LEO
Country
Flag of USUS
Related business
Manufacturer
SpaceX/Seattle
Mission
Operational Commercial Communications
Bus & Motor
STARLINK V2MO, Unknown motor
Mass
575 kg wet, ~530 kg dry
Launch date (UTC)
2025-10-22 (4 months ago)
Launch vehicle
FALCON 9
Launch site
Air Force Western Test Range (AFWTR)
Object type
Payload
Rocket body
Debris
Shape & HBR
Box + 2 Pan, 17.7 m
Radar Cross Section
36.964 m²

Expand to show TLE details & history
Last TLE update: 16 hours ago

TLE from 16 hours ago
0 STARLINK-35637
1 66130U 25237S   26061.46496655  .00027473  00000-0  93680-3 0  9997
2 66130  53.1585  73.2397 0001304  84.0738 276.0411 15.30181258 21507
Epoch: 2026-03-02T11:09Z
TLE epoch observation values (Epoch: 2026-03-02T11:09:33.109Z)
Latitude
-0.00007°
Longitude
105.5937°
Altitude
476.077 km
Speed
7.629 km/s
True Right ascension
04h 52m 57s
True Declination
0° 00' 00"
Sunlit
Object was in daylight at epoch
Visualization orbit readout
Latitude
Unknown
Longitude
Unknown
Altitude
Unknown
Speed
Unknown
Apparent Right ascension
Unknown
Apparent Declination
Unknown
Sunlit
N/A
Visualization observer readout
Local Sidereal Time
07:14:16
Azimuth
Unknown
Elevation
Unknown
Doppler factor
Unknown
Orbital elements
Apogee altitude
476.421 km
Perigee altitude
474.634 km
Semi-major axis
6,853.665 km
Eccentricity
0.00013
Inclination
53.1585°
RAAN
73.2397°
Arg. of periapsis
84.0738°
True anomaly
276.02624°
Mean anomaly
276.0411°
Eccentric anomaly
276.03367°
Mean motion
3.82524 °/min
Orbital period
94.11 mins
BSTAR
0.0009368
Loading maneuver chart data...
Computing Atmospheric mass density...
Loading historical data...
Loading historical data...
Loading historical data...
Loading historical data...
Loading historical data...
Loading historical data...
Loading historical data...

Documentation

Showing up to 5 results
|